sat.trackr.live / text

‹ back to catalog

STARLINK-2047

NORAD 47355 · 2021-005G

PAYLOAD ACTIVE UNKNOWN

§ Identity

Operator
Country
US
Launch date
2021-01-20
Launch site
AFETR
Launch vehicle
Mass (kg)
RCS (m²)

Purposes: comms

External: N2YO · Heavens-Above · Gunter

§ Orbital elements

Epoch: 2026-09-19T06:56:48.346080Z

Period
94.01 min
Inclination
53.1609°
Eccentricity
0.0001206
Mean motion
15.31700951 rev/d
Perigee alt
469.9 km
Apogee alt
471.6 km
Semi-major
6,848.9 km
B*
-1.6300e-6
RAAN
190.0145°
Arg perigee
92.7261°
Mean anomaly
267.3878°
Rev number
31,341

§ Raw data

STARLINK-20471 47355U 21005G   26262.28944845 -.00000416  00000+0 -16300-5 0  99912 47355  53.1609 190.0145 0001206  92.7261 267.3878 15.31700951313411

JSON: /api/v1/satellites/47355 · /tle

For live sub-satellite position, see the globe view (requires WebGL).

§ Visibility from observer

Set your observer location to see the next 7 days of passes ≥ 10°. The values pass through the URL so the page stays shareable.

No JS? Fill the form by hand. The geolocation button needs JavaScript.